Overview Statistics Trail Chart Weather Telemetry Raw packets
 

This is the latest recevied weather packets stored in our database for station/object N7IGG. If no packets are shown the sender has not sent any weather packets the latest 10 day(s).

<< 92 93 94 95 96 97 98 >>
Time Temp. Humidity Pressure Rain* Wind** Luminosity Snow
1777503201 17.78° C 62% 1023.2 hPa 0 mm - 576 W/m² -
1777502903 17.78° C 61% 1022.9 hPa 0 mm - 598 W/m² -
1777502596 17.22° C 63% 1023.3 hPa 0 mm - 493 W/m² -
1777502292 17.78° C 60% 1023.2 hPa 0 mm - 555 W/m² -
1777501989 17.22° C 60% 1023.1 hPa 0 mm - 535 W/m² -
1777501686 17.78° C 60% 1023.2 hPa 0 mm - 292 W/m² -
1777501383 17.78° C 61% 1023.3 hPa 0 mm - 530 W/m² -
1777501081 17.78° C 61% 1023.6 hPa 0 mm - 629 W/m² -
1777500779 17.78° C 61% 1023.5 hPa 0 mm - 650 W/m² -
1777500475 17.78° C 62% 1023.4 hPa 0 mm - 646 W/m² -
1777500171 17.22° C 62% 1023.6 hPa 0 mm - 634 W/m² -
1777499869 17.78° C 62% 1023.6 hPa 0 mm - 661 W/m² -
1777499564 17.78° C 61% 1023.7 hPa 0 mm - 678 W/m² -
1777499263 17.22° C 63% 1023.7 hPa 0 mm - 618 W/m² -
1777498959 17.78° C 63% 1023.7 hPa 0 mm - 678 W/m² -
1777498656 17.22° C 64% 1023.5 hPa 0 mm - 659 W/m² -
1777498352 17.22° C 65% 1023.6 hPa 0 mm - 609 W/m² -
1777498050 17.22° C 64% 1023.6 hPa 0 mm - 632 W/m² -
1777497746 17.78° C 65% 1023.7 hPa 0 mm - 673 W/m² -
1777497443 17.22° C 65% 1023.7 hPa 0 mm - 664 W/m² -
1777497139 17.22° C 64% 1023.8 hPa 0 mm - 643 W/m² -
1777496836 17.22° C 62% 1023.7 hPa 0 mm - 699 W/m² -
1777496533 17.22° C 63% 1023.9 hPa 0 mm - 656 W/m² -
1777496229 17.22° C 63% 1023.9 hPa 0 mm - 654 W/m² -
1777495925 16.67° C 66% 1023.8 hPa 0 mm - 648 W/m² -

* Rain latest hour (hover to see other rain measurements)
** Current wind speed in m/s (hover to see current wind gust speed)